| Date | Time | Temp. (oF) | Dew Point (oF) | Rel. Hum. (%) | Press. (in.) | Wind Dir. | Wind Speed (mph) | Hourly Rainfall (in.) |
|
|---|---|---|---|---|---|---|---|---|---|
| 1 | 04/06 | 00:00 | 44 | 29 | 56 | 29.95 | NE | 7 | 0.00 |
| 2 | 04/05 | 23:00 | 46 | 28 | 50 | 29.93 | ENE | 9 | 0.00 |
| 3 | 04/05 | 22:00 | 48 | 29 | 48 | 29.91 | NE | 6 | 0.00 |
| 4 | 04/05 | 21:00 | 50 | 29 | 45 | 29.88 | NW | 0 | 0.00 |
| 5 | 04/05 | 20:00 | 52 | 27 | 39 | 29.86 | NNE | 2 | 0.00 |
| 6 | 04/05 | 19:00 | 54 | 30 | 40 | 29.83 | NNE | 4 | 0.00 |
| 7 | 04/05 | 18:00 | 55 | 29 | 38 | 29.82 | WNW | 7 | 0.00 |
| 8 | 04/05 | 17:00 | 57 | 30 | 36 | 29.81 | NNE | 5 | 0.00 |
| 9 | 04/05 | 16:00 | 57 | 32 | 39 | 29.81 | WSW | 2 | 0.00 |
| 10 | 04/05 | 15:00 | 57 | 31 | 38 | 29.84 | N | 8 | 0.00 |
| 11 | 04/05 | 14:00 | 56 | 34 | 45 | 29.85 | W | 6 | 0.00 |
| 12 | 04/05 | 13:00 | 54 | 33 | 45 | 29.87 | N | 7 | 0.00 |
| 13 | 04/05 | 12:00 | 51 | 30 | 46 | 29.88 | E | 8 | 0.00 |
| 14 | 04/05 | 11:00 | 50 | 31 | 49 | 29.90 | N | 8 | 0.00 |
| 15 | 04/05 | 10:00 | 46 | 28 | 51 | 29.90 | NE | 8 | 0.00 |
| 16 | 04/05 | 09:00 | 45 | 28 | 52 | 29.90 | NE | 4 | 0.00 |
| 17 | 04/05 | 08:00 | 39 | 33 | 81 | 29.88 | SW | 3 | 0.00 |
| 18 | 04/05 | 07:00 | 37 | 30 | 76 | 29.86 | N | 0 | 0.00 |
| 19 | 04/05 | 06:00 | 39 | 27 | 63 | 29.83 | WSW | 0 | 0.00 |
| 20 | 04/05 | 05:00 | 42 | 28 | 58 | 29.82 | NNE | 3 | 0.00 |
| 21 | 04/05 | 04:00 | 42 | 27 | 56 | 29.81 | NNE | 2 | 0.00 |
| 22 | 04/05 | 03:00 | 44 | 26 | 51 | 29.80 | NE | 1 | 0.00 |
| 23 | 04/05 | 02:00 | 46 | 28 | 50 | 29.80 | NE | 9 | 0.00 |
| 24 | 04/05 | 01:00 | 48 | 29 | 49 | 29.80 | NNE | 6 | 0.00 |